When you browse on this site, cookies collect data to enhance your experience and personalize the content and advertising you see.
Visit our Privacy Policy to learn more. By continuing to use the site, you agree to this use of cookies and data.
  • In Sweden
  • List of Countries
  • For 7 days
  • Water Temperature
  • Satellite Maps
  • Weather Map
  • Weather Widgets
  • user-avatar
    Login

    Hourly Weather Garmisch-Partenkirchen

    Today, 20 January, Sunday

    Time Temperature Precipitation Wind Pressure Humidity
    00:00 -10°C° 0 mm 2 mps 669 mmHg 79%
    01:00 -9°C° 0 mm 2 mps 670 mmHg 75%
    02:00 -9°C° 0 mm 2 mps 669 mmHg 76%
    03:00 -9°C° 0 mm 2 mps 669 mmHg 77%
    04:00 -9°C° 0 mm 2 mps 669 mmHg 77%
    05:00 -9°C° 0 mm 2 mps 669 mmHg 77%
    06:00 -9°C° 0 mm 2 mps 669 mmHg 77%
    07:00 -9°C° 0 mm 2 mps 669 mmHg 77%
    08:00 -8°C° 0 mm 2 mps 670 mmHg 78%
    09:00 -4°C° 0 mm 1 mps 670 mmHg 80%
    10:00 -3°C° 0 mm 1 mps 670 mmHg 82%
    11:00 -1°C° 0 mm 1 mps 671 mmHg 81%
    12:00 -1°C° 0 mm 0 mps 671 mmHg 80%
    13:00 0°C° 0 mm 0 mps 671 mmHg 79%
    14:00 0°C° 0 mm 0 mps 671 mmHg 83%
    15:00 -1°C° 0 mm 0 mps 671 mmHg 87%
    16:00 -2°C° 0 mm 0 mps 671 mmHg 90%
    17:00 -3°C° 0 mm 0 mps 671 mmHg 90%
    18:00 -3°C° 0 mm 1 mps 671 mmHg 89%
    19:00 -6°C° 0 mm 1 mps 671 mmHg 89%
    20:00 -6°C° 0 mm 1 mps 671 mmHg 88%
    21:00 -7°C° 0 mm 1 mps 671 mmHg 87%
    22:00 -7°C° 0 mm 1 mps 672 mmHg 86%
    23:00 -7°C° 0 mm 1 mps 672 mmHg 86%

    Tomorrow, 21 January, Monday

    Time Temperature Precipitation Wind Pressure Humidity
    00:00 -7°C° 0 mm 1 mps 672 mmHg 85%
    01:00 -7°C° 0 mm 1 mps 672 mmHg 85%
    02:00 -7°C° 0 mm 1 mps 672 mmHg 85%
    03:00 -8°C° 0 mm 1 mps 672 mmHg 85%
    04:00 -8°C° 0 mm 1 mps 672 mmHg 86%
    05:00 -8°C° 0 mm 1 mps 672 mmHg 86%
    06:00 -8°C° 0 mm 1 mps 673 mmHg 86%
    07:00 -8°C° 0 mm 1 mps 673 mmHg 86%
    08:00 -7°C° 0 mm 1 mps 673 mmHg 87%
    09:00 -6°C° 0 mm 1 mps 674 mmHg 88%
    10:00 -4°C° 0 mm 0 mps 674 mmHg 89%
    11:00 -3°C° 0 mm 0 mps 674 mmHg 89%
    12:00 -1°C° 0 mm 1 mps 674 mmHg 89%
    13:00 0°C° 0 mm 1 mps 674 mmHg 90%
    14:00 0°C° 0 mm 1 mps 674 mmHg 91%
    15:00 -1°C° 0 mm 1 mps 674 mmHg 93%
    16:00 -1°C° 0 mm 1 mps 673 mmHg 95%
    17:00 -3°C° 0 mm 0 mps 673 mmHg 96%
    18:00 -5°C° 0 mm 0 mps 673 mmHg 96%
    19:00 -6°C° 0 mm 0 mps 673 mmHg 97%
    20:00 -6°C° 0 mm 0 mps 673 mmHg 95%
    21:00 -7°C° 0 mm 1 mps 673 mmHg 93%
    22:00 -8°C° 0 mm 1 mps 673 mmHg 92%
    23:00 -8°C° 0 mm 1 mps 673 mmHg 90%

    Day after tomorrow, 22 January, Tuesday

    Time Temperature Precipitation Wind Pressure Humidity
    00:00 -9°C° 0 mm 1 mps 672 mmHg 88%
    01:00 -12°C° 0 mm 2 mps 672 mmHg 86%
    02:00 -12°C° 0 mm 2 mps 671 mmHg 84%
    03:00 -12°C° 0 mm 2 mps 671 mmHg 83%
    04:00 -12°C° 0 mm 2 mps 670 mmHg 82%
    05:00 -12°C° 0 mm 2 mps 670 mmHg 81%
    06:00 -12°C° 0 mm 2 mps 669 mmHg 80%
    07:00 -12°C° 0 mm 2 mps 669 mmHg 79%
    08:00 -10°C° 0 mm 2 mps 669 mmHg 80%
    09:00 -7°C° 0 mm 1 mps 668 mmHg 81%
    10:00 -6°C° 0 mm 1 mps 668 mmHg 82%
    11:00 -3°C° 0 mm 1 mps 668 mmHg 81%
    12:00 -1°C° 0 mm 1 mps 667 mmHg 79%
    13:00 +1°C° 0 mm 1 mps 666 mmHg 78%
    14:00 0°C° 0 mm 1 mps 665 mmHg 82%
    15:00 -1°C° 0 mm 1 mps 664 mmHg 86%
    16:00 -1°C° 0 mm 1 mps 663 mmHg 90%
    17:00 -3°C° 0 mm 1 mps 663 mmHg 87%
    18:00 -6°C° 0 mm 1 mps 662 mmHg 85%
    19:00 -9°C° 0 mm 2 mps 662 mmHg 83%
    20:00 -9°C° 0 mm 2 mps 661 mmHg 81%
    21:00 -10°C° 0 mm 2 mps 661 mmHg 79%
    22:00 -12°C° 0 mm 2 mps 660 mmHg 77%
    23:00 -12°C° 0 mm 2 mps 660 mmHg 77%

    23 January, Wednesday

    Time Temperature Precipitation Wind Pressure Humidity
    00:00 -12°C° 0 mm 2 mps 660 mmHg 77%
    01:00 -12°C° 0 mm 2 mps 659 mmHg 77%
    02:00 -12°C° 0 mm 2 mps 659 mmHg 77%
    03:00 -13°C° 0 mm 2 mps 659 mmHg 77%
    04:00 -13°C° 0 mm 2 mps 659 mmHg 77%
    05:00 -13°C° 0 mm 2 mps 659 mmHg 76%
    06:00 -13°C° 0 mm 2 mps 659 mmHg 75%
    07:00 -12°C° 0 mm 2 mps 659 mmHg 75%
    08:00 -10°C° 0 mm 2 mps 659 mmHg 77%
    09:00 -7°C° 0 mm 1 mps 660 mmHg 79%
    10:00 -6°C° 0 mm 1 mps 660 mmHg 81%
    11:00 -3°C° 0 mm 1 mps 661 mmHg 80%
    12:00 -2°C° 0 mm 1 mps 661 mmHg 80%
    13:00 -1°C° 0 mm 1 mps 661 mmHg 79%
    14:00 -1°C° 0 mm 1 mps 661 mmHg 84%
    15:00 -2°C° 0 mm 1 mps 661 mmHg 88%
    16:00 -3°C° 0 mm 1 mps 661 mmHg 93%
    17:00 -4°C° 0 mm 1 mps 662 mmHg 94%
    18:00 -7°C° 0 mm 1 mps 662 mmHg 94%
    19:00 -8°C° 0 mm 1 mps 662 mmHg 95%
    20:00 -9°C° 0 mm 1 mps 663 mmHg 93%
    21:00 -9°C° 0 mm 1 mps 663 mmHg 91%
    22:00 -10°C° 0 mm 1 mps 664 mmHg 90%
    23:00 -12°C° 0 mm 2 mps 664 mmHg 87%

    24 January, Thursday

    Time Temperature Precipitation Wind Pressure Humidity
    00:00 -13°C° 0 mm 2 mps 664 mmHg 85%
    01:00 -13°C° 0 mm 2 mps 664 mmHg 83%
    02:00 -13°C° 0 mm 2 mps 664 mmHg 82%
    03:00 -13°C° 0 mm 2 mps 664 mmHg 81%
    04:00 -14°C° 0 mm 2 mps 664 mmHg 80%
    05:00 -14°C° 0 mm 2 mps 664 mmHg 81%
    06:00 -12°C° 0 mm 1 mps 665 mmHg 81%
    07:00 -12°C° 0 mm 1 mps 665 mmHg 81%
    08:00 -10°C° 0 mm 1 mps 666 mmHg 83%
    09:00 -9°C° 0 mm 1 mps 666 mmHg 85%
    10:00 -7°C° 0 mm 1 mps 667 mmHg 86%
    11:00 -6°C° 0 mm 1 mps 667 mmHg 87%
    12:00 -3°C° 0 mm 1 mps 667 mmHg 87%
    13:00 -2°C° 0 mm 1 mps 667 mmHg 88%
    14:00 -2°C° 0.1 mm 1 mps 667 mmHg 90%
    15:00 -3°C° 0.1 mm 1 mps 667 mmHg 92%
    16:00 -3°C° 0.1 mm 1 mps 666 mmHg 94%
    17:00 -4°C° 0.1 mm 1 mps 667 mmHg 95%
    18:00 -6°C° 0.1 mm 0 mps 667 mmHg 96%
    19:00 -8°C° 0.1 mm 0 mps 667 mmHg 97%
    20:00 -8°C° 0.1 mm 0 mps 668 mmHg 97%
    21:00 -9°C° 0.1 mm 0 mps 668 mmHg 96%
    22:00 -9°C° 0.1 mm 0 mps 668 mmHg 96%
    23:00 -10°C° 0 mm 1 mps 668 mmHg 95%

    25 January, Friday

    Time Temperature Precipitation Wind Pressure Humidity
    00:00 -10°C° 0 mm 1 mps 668 mmHg 94%
    01:00 -11°C° 0 mm 1 mps 668 mmHg 93%
    02:00 -11°C° 0 mm 1 mps 668 mmHg 92%
    03:00 -12°C° 0 mm 1 mps 668 mmHg 91%
    04:00 -12°C° 0 mm 1 mps 668 mmHg 90%
    05:00 -13°C° 0 mm 1 mps 668 mmHg 89%
    06:00 -13°C° 0 mm 1 mps 669 mmHg 89%
    07:00 -13°C° 0 mm 1 mps 669 mmHg 88%
    08:00 -12°C° 0 mm 1 mps 670 mmHg 88%
    09:00 -10°C° 0 mm 1 mps 670 mmHg 88%
    10:00 -9°C° 0 mm 1 mps 671 mmHg 88%
    11:00 -7°C° 0 mm 1 mps 671 mmHg 87%
    12:00 -6°C° 0 mm 1 mps 672 mmHg 85%
    13:00 -4°C° 0 mm 1 mps 672 mmHg 83%
    14:00 -4°C° 0 mm 1 mps 672 mmHg 86%
    15:00 -6°C° 0 mm 1 mps 672 mmHg 89%
    16:00 -6°C° 0 mm 1 mps 672 mmHg 92%
    17:00 -7°C° 0 mm 1 mps 673 mmHg 92%
    18:00 -9°C° 0 mm 1 mps 673 mmHg 93%
    19:00 -10°C° 0 mm 1 mps 674 mmHg 93%
    20:00 -11°C° 0 mm 1 mps 674 mmHg 92%
    21:00 -11°C° 0 mm 1 mps 675 mmHg 90%
    22:00 -11°C° 0 mm 1 mps 675 mmHg 89%
    23:00 -12°C° 0 mm 1 mps 675 mmHg 88%
    Show more